This is the latest recevied weather packets stored in our database for station/object KJ6APE. If no packets are shown the sender has not sent any weather packets the latest 10 day(s).
| Time | Temp. | Humidity | Pressure | Rain* | Wind** | Luminosity | Snow |
|---|---|---|---|---|---|---|---|
| 1777579344 | 24.44° C | 42% | 1013.9 hPa | 0 mm | - | 977 W/m² | - |
| 1777579040 | 24.44° C | 44% | 1014.1 hPa | 0 mm | - | 973 W/m² | - |
| 1777578735 | 24.44° C | 45% | 1014.1 hPa | 0 mm | - | 969 W/m² | - |
| 1777578435 | 24.44° C | 46% | 1014 hPa | 0 mm | - | 968 W/m² | - |
| 1777578131 | 24.44° C | 45% | 1013.9 hPa | 0 mm | - | 966 W/m² | - |
| 1777577827 | 24.44° C | 46% | 1014.1 hPa | 0 mm | - | 960 W/m² | - |
| 1777577522 | 24.44° C | 44% | 1014.2 hPa | 0 mm | - | 956 W/m² | - |
| 1777577219 | 24.44° C | 45% | 1014.3 hPa | 0 mm | - | 950 W/m² | - |
| 1777576915 | 23.89° C | 47% | 1014.2 hPa | 0 mm | - | 947 W/m² | - |
| 1777576610 | 23.33° C | 49% | 1014.2 hPa | 0 mm | - | 940 W/m² | - |
| 1777576306 | 23.33° C | 49% | 1014.3 hPa | 0 mm | - | 934 W/m² | - |
| 1777576003 | 23.33° C | 48% | 1014.6 hPa | 0 mm | - | 928 W/m² | - |
| 1777575699 | 22.78° C | 51% | 1014.7 hPa | 0 mm | - | 922 W/m² | - |
| 1777575394 | 22.78° C | 49% | 1014.6 hPa | 0 mm | - | 912 W/m² | - |
| 1777575091 | 22.22° C | 52% | 1014.9 hPa | 0 mm | - | 904 W/m² | - |
| 1777574786 | 22.22° C | 51% | 1014.9 hPa | 0 mm | - | 895 W/m² | - |
| 1777574485 | 22.22° C | 50% | 1014.7 hPa | 0 mm | - | 886 W/m² | - |
| 1777574181 | 22.22° C | 50% | 1014.7 hPa | 0 mm | - | 875 W/m² | - |
| 1777573875 | 22.22° C | 53% | 1014.8 hPa | 0 mm | - | 866 W/m² | - |
| 1777573571 | 22.22° C | 51% | 1014.9 hPa | 0 mm | - | 854 W/m² | - |
| 1777573267 | 22.78° C | 49% | 1015 hPa | 0 mm | - | 844 W/m² | - |
| 1777572963 | 22.78° C | 50% | 1014.8 hPa | 0 mm | - | 833 W/m² | - |
| 1777572660 | 22.22° C | 52% | 1014.7 hPa | 0 mm | - | 819 W/m² | - |
| 1777572359 | 21.67° C | 52% | 1015 hPa | 0 mm | - | 806 W/m² | - |
| 1777572056 | 21.67° C | 53% | 1014.9 hPa | 0 mm | - | 795 W/m² | - |
* Rain latest hour (hover to see other rain measurements)
** Current wind speed in m/s (hover to see current wind gust speed)